DateTimeUTC,F1_A11,F1_S11,BsB_S11,BsG_S11,BsR_S11,BbsB_S11,BbsG_S11,BbsR_S11,BaB_A11,BaG_A11,BaR_A11,Tu_S11,T_S11,Uu_S11,U_S11,P_S11,T1_A11
2021-05-26T04:00:00Z,00000200,20000000,,,,,,,-000.16,-000.05,-000.11,16.6,23.5,05.1,03.3,0672.1,30.9
2021-05-26T04:01:00Z,00000200,20000000,,,,,,,0000.30,0000.37,0000.14,16.6,23.5,05.1,03.3,0672.2,30.8
2021-05-26T04:02:00Z,00000200,20000000,,,,,,,-000.67,-000.43,0000.00,16.6,23.5,05.1,03.3,0672.2,30.8
2021-05-26T04:03:00Z,00000200,60000000,,,,,,,0000.66,0000.37,0000.17,16.6,23.5,05.1,03.3,0672.2,30.8
2021-05-26T04:04:00Z,00000200,40000000,0001.85,0000.69,0000.40,0000.14,0000.13,0000.27,-000.02,0000.06,0000.25,16.8,23.3,05.4,03.6,0673.2,30.8
2021-05-26T04:05:00Z,00000200,00000000,0001.32,0000.69,0000.82,0000.45,-000.02,0000.31,0000.40,0000.21,0000.08,16.8,23.3,05.3,03.6,0673.2,30.8
2021-05-26T04:06:00Z,00000200,00000000,0001.19,0000.59,0000.44,-000.35,0000.12,0000.07,-000.27,0000.04,-000.00,16.8,23.3,05.4,03.6,0673.2,30.8
2021-05-26T04:07:00Z,00000200,00000000,0000.64,0000.63,0000.06,0000.17,0000.23,0000.26,0000.35,0000.27,0000.11,16.8,23.3,05.5,03.7,0673.3,30.8
2021-05-26T04:08:00Z,00000200,00000000,0001.74,0000.76,0000.54,-000.08,0000.05,0000.21,0000.21,0000.00,0000.36,16.8,23.3,05.5,03.7,0673.3,30.8
2021-05-26T04:09:00Z,00000200,00000000,0000.90,0000.82,0000.40,-000.16,-000.08,0000.00,0000.14,0000.02,0000.02,16.8,23.2,05.6,03.8,0673.3,30.8
2021-05-26T04:10:00Z,00000200,00000000,0001.22,0000.95,0000.70,0000.04,0000.01,0000.17,0000.00,0000.36,0000.23,16.8,23.3,05.5,03.7,0673.3,30.8
2021-05-26T04:11:00Z,00000200,00000000,0001.58,0000.88,0000.26,0000.11,0000.05,0000.35,-000.34,0000.09,0000.07,16.8,23.3,05.6,03.8,0673.3,30.8
2021-05-26T04:12:00Z,00000200,00000000,0001.76,0000.82,0000.62,-000.03,0000.06,-000.13,0000.39,-000.09,0000.07,16.8,23.2,05.6,03.7,0673.4,30.8
2021-05-26T04:13:00Z,00000200,00000000,0001.30,0001.04,0000.45,0000.08,0000.13,0000.11,0000.20,0000.35,0000.18,16.8,23.2,05.7,03.8,0673.4,30.8
2021-05-26T04:14:00Z,00000200,00000000,0000.92,0001.26,0000.81,0000.25,0000.22,0000.27,0000.53,0000.46,0000.68,16.8,23.2,05.7,03.8,0673.3,30.8
2021-05-26T04:15:00Z,00000200,00000000,0001.42,0000.86,0000.39,0000.20,0000.16,0000.15,-000.06,0000.12,-000.11,16.8,23.2,05.7,03.8,0673.3,30.8
2021-05-26T04:16:00Z,00000200,00000000,0001.04,0000.73,0000.43,-000.46,0000.26,0000.09,0000.38,0000.22,0000.45,16.8,23.2,05.7,03.8,0673.4,30.8
2021-05-26T04:17:00Z,00000200,00000000,0002.26,0000.73,0000.58,-000.19,0000.16,0000.21,-000.23,-000.24,-000.01,16.9,23.3,05.8,03.9,0673.4,30.8
2021-05-26T04:18:00Z,00000200,00000000,0001.28,0000.72,0000.41,0000.15,-000.19,0000.07,0000.17,0000.65,0000.44,16.9,23.3,05.7,03.8,0673.3,30.8
2021-05-26T04:19:00Z,00000200,00000000,0001.08,0000.70,0000.03,-000.32,0000.31,0000.05,0000.39,0000.03,-000.04,16.9,23.3,05.7,03.8,0673.3,30.8
2021-05-26T04:20:00Z,00000200,00000000,0001.52,0000.65,0000.72,-000.26,0000.03,0000.07,-000.30,-000.14,0000.24,16.9,23.3,05.7,03.9,0673.4,30.8
2021-05-26T04:21:00Z,00000200,00000000,0001.65,0000.73,0000.33,0000.01,0000.15,0000.18,0000.28,0000.17,-000.18,16.9,23.3,05.8,03.9,0673.3,30.8
2021-05-26T04:22:00Z,00000200,00000000,0001.84,0000.44,0000.46,-000.56,0000.03,-000.02,0000.05,-000.03,0000.04,16.9,23.3,05.7,03.9,0673.3,30.8
2021-05-26T04:23:00Z,00000200,00000000,0001.31,0000.60,0000.36,0000.31,0000.06,0000.01,0000.02,0000.01,0000.41,16.9,23.3,05.8,03.9,0673.3,30.8
2021-05-26T04:24:00Z,00000200,00000000,0001.30,0000.76,0000.40,0000.44,0000.07,0000.31,0000.21,0000.12,0000.05,16.9,23.3,05.7,03.9,0673.3,30.8
2021-05-26T04:25:00Z,00000200,00000000,0000.99,0000.68,0000.49,-000.31,-000.09,0000.04,-000.10,0000.15,0000.24,16.9,23.3,05.8,03.9,0673.3,30.8
2021-05-26T04:26:00Z,00000200,00000000,0001.34,0000.42,0000.25,-000.11,0000.13,-000.10,0000.05,0000.09,-000.10,16.9,23.2,05.9,04.0,0673.4,30.8
2021-05-26T04:27:00Z,00000200,00000000,0000.95,0000.68,0000.17,-000.12,-000.14,0000.16,0000.38,0000.27,0000.31,16.8,23.2,05.9,04.0,0673.4,30.8
2021-05-26T04:28:00Z,00000200,00000000,0001.24,0000.57,0000.08,-000.07,-000.06,0000.17,0000.14,-000.04,0000.32,16.8,23.2,05.9,04.0,0673.4,30.8
2021-05-26T04:29:00Z,00000200,00000000,0001.28,0000.75,0000.46,-000.11,0000.07,0000.22,0000.20,0000.58,0000.21,16.8,23.2,06.0,04.0,0673.4,30.8
2021-05-26T04:30:00Z,00000200,00000000,0000.97,0000.52,0000.31,-000.69,0000.42,-000.01,0000.40,0000.17,0000.12,16.8,23.2,05.9,04.0,0673.4,30.8
2021-05-26T04:31:00Z,00000200,00000000,0001.18,0000.47,0000.39,-000.21,-000.17,0000.16,0000.23,-000.11,0000.39,16.9,23.2,06.0,04.0,0673.4,30.8
2021-05-26T04:32:00Z,00000200,00000000,0001.17,0000.37,0000.21,0000.14,-000.02,0000.20,-000.44,0000.27,-000.15,16.9,23.3,06.0,04.0,0673.4,30.8
2021-05-26T04:33:00Z,00000200,00000000,0001.43,0000.55,0000.53,-000.09,-000.16,-000.04,0000.12,0000.11,0000.40,16.9,23.3,05.9,04.0,0673.4,30.8
2021-05-26T04:34:00Z,00000200,00000000,0001.41,0000.44,0000.43,-000.17,-000.13,0000.25,0000.48,0000.07,0000.16,16.9,23.3,05.9,04.0,0673.5,30.8
2021-05-26T04:35:00Z,00000200,00000000,0001.37,0000.56,0000.12,0000.30,0000.14,0000.22,0000.16,0000.17,-000.12,17.0,23.3,06.0,04.1,0673.4,30.8
2021-05-26T04:36:00Z,00000200,00000000,0001.55,0000.49,0000.51,-000.17,0000.44,0000.07,-000.16,0000.01,-000.07,17.0,23.3,05.9,04.0,0673.5,30.9
2021-05-26T04:37:00Z,00000200,00000000,0000.97,0000.59,0000.35,0000.28,-000.01,0000.20,0000.12,-000.02,0000.05,16.9,23.3,06.0,04.1,0673.4,30.8
2021-05-26T04:38:00Z,00000200,00000000,0001.38,0000.44,0000.19,-000.21,-000.00,0000.04,0000.01,0000.66,0000.31,16.9,23.3,05.9,04.0,0673.4,30.8
2021-05-26T04:39:00Z,00000200,00000000,0001.16,0000.58,0000.44,-000.22,0000.03,-000.19,0000.27,-000.05,0000.29,16.9,23.3,06.1,04.1,0673.3,30.8
2021-05-26T04:40:00Z,00000200,00000000,0001.24,0000.58,0000.28,0000.37,0000.03,0000.16,-000.02,-000.17,0000.04,16.9,23.3,06.1,04.1,0673.2,30.8
2021-05-26T04:41:00Z,00000200,00000000,0001.33,0000.77,0000.43,-000.29,-000.11,0000.08,0000.32,0000.29,0000.52,16.9,23.3,06.1,04.1,0673.3,30.8
2021-05-26T04:42:00Z,00000200,00000000,0001.62,0000.52,0000.25,0000.17,0000.00,0000.09,-000.11,-000.06,-000.29,16.9,23.2,06.2,04.2,0673.4,30.8
2021-05-26T04:43:00Z,00000200,00000000,0001.20,0000.74,0000.48,-000.00,-000.01,0000.29,0000.39,0000.23,0000.48,16.9,23.2,06.1,04.1,0673.3,30.8
2021-05-26T04:44:00Z,00000200,00000000,0001.22,0000.78,0000.43,-000.04,-000.00,0000.24,0000.25,0000.64,0000.37,16.9,23.2,06.2,04.2,0673.3,30.8
2021-05-26T04:45:00Z,00000200,00000000,0001.05,0000.83,0000.60,0000.09,0000.16,0000.24,0000.03,-000.14,0000.14,16.9,23.2,06.2,04.2,0673.3,30.8
2021-05-26T04:46:00Z,00000200,00000000,0001.55,0000.70,0000.49,0000.44,0000.08,-000.04,0000.28,0000.34,0000.34,16.9,23.3,06.2,04.2,0673.3,30.8
2021-05-26T04:47:00Z,00000200,00000000,0001.74,0000.56,0000.86,0000.12,0000.13,0000.13,-000.06,-000.34,-000.05,17.0,23.3,06.1,04.1,0673.3,30.8
2021-05-26T04:48:00Z,00000200,00000000,0001.96,0000.80,0000.44,0000.31,-000.10,-000.04,0000.09,0000.28,-000.17,17.0,23.3,06.1,04.1,0673.3,30.8
2021-05-26T04:49:00Z,00000200,00000000,0001.38,0000.62,0000.05,-000.21,0000.01,0000.11,-000.08,0000.28,0000.55,17.0,23.3,06.1,04.1,0673.3,30.8
2021-05-26T04:50:00Z,00000200,00000000,0001.26,0000.78,0000.65,-000.25,0000.15,0000.37,0000.72,0000.26,0000.21,17.0,23.3,06.2,04.2,0673.3,30.8
2021-05-26T04:51:00Z,00000200,00000000,0001.23,0000.90,0000.55,0000.49,0000.06,0000.10,-000.26,-000.13,0000.06,17.0,23.3,06.2,04.2,0673.3,30.8
2021-05-26T04:52:00Z,00000200,00000000,0001.50,0000.47,0000.30,0000.18,0000.20,0000.13,0000.05,0000.16,0000.27,17.0,23.3,06.2,04.2,0673.3,30.8
2021-05-26T04:53:00Z,00000200,00000000,0001.66,0000.67,0000.71,0000.06,0000.16,0000.30,0000.38,0000.55,0000.14,17.0,23.3,06.3,04.2,0673.3,30.8
2021-05-26T04:54:00Z,00000200,00000000,0001.40,0000.72,0000.59,0000.02,0000.23,0000.27,0000.14,0000.13,0000.39,17.0,23.3,06.2,04.2,0673.3,30.8
2021-05-26T04:55:00Z,00000200,00000000,0000.70,0000.64,0000.55,-000.38,0000.06,-000.13,0000.00,0000.09,0000.25,17.0,23.3,06.3,04.3,0673.3,30.8
2021-05-26T04:56:00Z,00000200,00000000,0001.62,0000.58,0000.34,0000.21,-000.05,0000.21,0000.26,0000.17,0000.09,17.0,23.3,06.3,04.3,0673.3,30.8
2021-05-26T04:57:00Z,00000200,40000000,,,,,,,-000.06,-000.02,-000.44,17.0,23.3,06.1,04.1,0673.4,30.8
2021-05-26T04:58:00Z,00000200,60000000,,,,,,,-000.06,0000.06,0000.28,16.8,23.4,06.2,04.1,0672.3,30.8
2021-05-26T04:59:00Z,00000200,20000000,,,,,,,0000.32,0000.21,0000.34,16.7,23.5,06.2,04.1,0672.2,30.8
